Regional Weather Roundup
Issued by NWS

Home | Current Version | Previous Version | Graphics & Text | Print | Product List | Glossary On
Versions: 1 2 3 4 5 6 7 8 9 10 11 12 13 14 15 16 17 18 19 20 21 22 23 24 25 26 27 28 29 30 31 32 33 34 35 36 37 38 39 40 41 42 43 44 45 46 47 48 49 50
000
ASUS45 KSLC 261010
RWRUT

UTAH REGIONAL WEATHER ROUNDUP
NATIONAL WEATHER SERVICE SALT LAKE CITY UT
300 AM MST WED NOV 26 2014

UTZ001>011-023>025-261100-

NORTHERN UTAH

CITY           SKY/WX    TMP DP  RH WIND       PRES   REMARKS
HILL AFB       PTCLDY    40  32  70 SE3       30.34S
LOGAN          CLOUDY    45  35  68 S5        30.29S
OGDEN          PTCLDY    40  33  76 S6        30.33S
PROVO AIRPORT  PTCLDY    30  27  86 CALM      30.37R
SALT LAKE CITY PTCLDY    40  28  62 SE5       30.34R
VERNAL         PTCLDY    28  22  78 W7        30.24R WCI  21
WENDOVER       CLEAR     43  28  56 SW6       30.35R
HEBER CITY     PTCLDY    30  30 100 E5        30.35R WCI  25
WEST JORDAN    CLEAR     37  32  81 CALM      30.36R

$$

UTZ012>022-026-027-261100-

SOUTHERN/CENTRAL UTAH

CITY           SKY/WX    TMP DP  RH WIND       PRES   REMARKS
BLANDING       PTCLDY    28  14  56 NW7       30.41S WCI  21
BRYCE CANYON   CLEAR     35  20  54 NW6       30.44R WCI  30
CEDAR CITY     CLEAR     28  20  71 CALM      30.40S
DELTA          CLEAR     30  24  78 S3        30.38S
MILFORD        CLEAR     27  16  63 SW12      30.39S WCI  17
MOAB/CYNLANDS  CLEAR     25   8  48 W7        30.32R WCI  17
PRICE          CLEAR     32  19  58 VRB5      30.31R WCI  27
ST GEORGE      MOSUNNY   37   9  30 SE3       30.45R
KANAB          CLEAR     28  10  47 N6        30.47S WCI  22

$$

REGIONAL REPORTS     COLORADO/ARIZONA

CITY           SKY/WX    TMP DP  RH WIND       PRES   REMARKS
CRAIG, CO      CLOUDY    31  25  78 E5        30.24R WCI  26
GRAND JUNCTION PTCLDY    24  19  81 E3        30.33R
RIFLE          CLOUDY    27  22  81 SW3       30.33S
MONTROSE       CLOUDY    33  21  61 CALM      30.34R
CORTEZ         CLEAR     21  14  74 E9        30.36S WCI  11
PAGE, AZ       CLEAR     39   9  29 CALM      30.38R HAZE
GRAND CANYON   PTCLDY    20   6  55 CALM      30.44S
KINGMAN        CLEAR     35   8  32 E6        30.37S WCI  30
FLAGSTAFF      CLEAR     24  12  60 CALM      30.40F

$$

REGIONAL REPORTS    NEVADA/IDAHO/WYOMING

CITY           SKY/WX    TMP DP  RH WIND       PRES   REMARKS
LAS VEGAS, NV  CLEAR     45  13  27 SW9       30.33F
ELY            CLEAR     23  32 100 S13       30.46S WCI  11
ELKO           CLEAR     29  26  89 E3        30.42R
POCATELLO, ID  PTCLDY    44  38  79 SW23G30   30.25R
BURLEY         CLEAR     45  34  65 W13       30.28R
EVANSTON, WY   MOCLDY    36  30  79 W31G38    30.26R WCI  23
ROCK SPRINGS   CLOUDY    37  31  78 W29G39    30.15F WCI  25

$$



USA.gov is the U.S. government's official web portal to all federal, state and local government web resources and services.